20040108,000011,190633,31.155333,-120.935333,15.699,33.167,NaN,NaN
20040108,000041,190663,31.154667,-120.936833,15.724,33.169,NaN,NaN
20040108,000111,190693,31.154000,-120.938333,15.688,33.175,NaN,NaN
20040108,000141,190723,31.153333,-120.939833,15.673,33.171,NaN,NaN
20040108,000211,190753,31.152667,-120.941333,15.674,33.170,NaN,NaN
20040108,000241,190783,31.151833,-120.943000,15.677,33.169,NaN,NaN
20040108,000311,190813,31.151167,-120.944500,15.689,33.169,NaN,NaN
20040108,000341,190843,31.150500,-120.946000,15.676,33.169,NaN,NaN
20040108,000411,190873,31.149833,-120.947667,15.681,33.166,NaN,NaN
20040108,000441,190903,31.149167,-120.949167,15.701,33.167,NaN,NaN
20040108,000511,190933,31.148500,-120.950667,15.706,33.167,NaN,NaN
20040108,000541,190963,31.147667,-120.952167,15.711,33.168,NaN,NaN
20040108,000611,190993,31.147000,-120.953667,15.707,33.168,NaN,NaN
20040108,000641,191023,31.146333,-120.955167,15.734,33.165,NaN,NaN
20040108,000711,191053,31.145667,-120.956667,15.769,33.165,NaN,NaN
20040108,000741,191083,31.144833,-120.958167,15.789,33.167,NaN,NaN
20040108,000811,191113,31.144167,-120.959667,15.804,33.169,NaN,NaN
20040108,000841,191143,31.143500,-120.961167,15.825,33.167,NaN,NaN
20040108,000911,191173,31.142667,-120.962667,15.839,33.169,NaN,NaN
20040108,000941,191203,31.142000,-120.964167,15.825,33.171,NaN,NaN
20040108,001011,191233,31.141167,-120.965667,15.807,33.172,NaN,NaN
20040108,001041,191263,31.140500,-120.967167,15.801,33.170,NaN,NaN
20040108,001111,191293,31.139833,-120.968667,15.804,33.170,NaN,NaN
20040108,001141,191323,31.139000,-120.970167,15.799,33.170,NaN,NaN
20040108,001211,191353,31.138333,-120.971667,15.782,33.171,NaN,NaN
20040108,001241,191383,31.137667,-120.973167,15.772,33.171,NaN,NaN
20040108,001311,191413,31.136833,-120.974667,15.761,33.171,NaN,NaN
20040108,001341,191443,31.136167,-120.976167,15.752,33.171,NaN,NaN
20040108,001411,191473,31.135500,-120.977667,15.737,33.172,NaN,NaN
20040108,001441,191503,31.134667,-120.979167,15.703,33.173,NaN,NaN
20040108,001511,191533,31.134000,-120.980667,15.717,33.167,NaN,NaN
20040108,001541,191563,31.133167,-120.982167,15.736,33.167,NaN,NaN
20040108,001611,191593,31.132500,-120.983667,15.742,33.168,NaN,NaN
20040108,001641,191623,31.131833,-120.985167,15.744,33.168,NaN,NaN
20040108,001711,191653,31.131000,-120.986667,15.738,33.167,NaN,NaN
20040108,001741,191683,31.130333,-120.988167,15.737,33.168,NaN,NaN
20040108,001811,191713,31.129667,-120.989667,15.727,33.167,NaN,NaN
20040108,001841,191743,31.128833,-120.991167,15.719,33.168,NaN,NaN
20040108,001911,191773,31.128167,-120.992667,15.711,33.168,NaN,NaN
20040108,001941,191803,31.127333,-120.994333,15.723,33.165,NaN,NaN
20040108,002011,191833,31.126667,-120.995833,15.732,33.166,NaN,NaN
20040108,002041,191863,31.126000,-120.997333,15.725,33.168,NaN,NaN
20040108,002111,191893,31.125167,-120.998833,15.694,33.169,NaN,NaN
20040108,002141,191923,31.124333,-121.000167,15.694,33.167,NaN,NaN
20040108,002211,191953,31.123667,-121.001667,15.689,33.157,NaN,NaN
20040108,002241,191983,31.123000,-121.003167,15.659,33.141,NaN,NaN
20040108,002311,192013,31.122167,-121.004667,15.608,33.115,NaN,NaN
20040108,002341,192043,31.121333,-121.006333,15.564,33.090,NaN,NaN
20040108,002411,192073,31.120667,-121.007833,15.528,33.071,NaN,NaN
20040108,002441,192103,31.119833,-121.009333,15.501,33.064,NaN,NaN
20040108,002511,192133,31.119167,-121.010833,15.479,33.029,NaN,NaN
20040108,002541,192163,31.118333,-121.012333,15.455,32.994,NaN,NaN
20040108,002611,192193,31.117500,-121.013833,15.439,32.979,NaN,NaN
20040108,002641,192223,31.116833,-121.015333,15.443,32.955,NaN,NaN
20040108,002711,192253,31.116000,-121.016833,15.446,32.939,NaN,NaN
20040108,002741,192283,31.115167,-121.018333,15.494,32.926,NaN,NaN
20040108,002811,192313,31.114333,-121.019833,15.520,32.923,NaN,NaN
20040108,002841,192343,31.113667,-121.021333,15.522,32.922,NaN,NaN
20040108,002911,192373,31.112833,-121.023000,15.521,32.921,NaN,NaN
20040108,002941,192403,31.112000,-121.024500,15.527,32.919,NaN,NaN
20040108,003011,192433,31.111333,-121.026000,15.516,32.919,NaN,NaN
20040108,003041,192463,31.110500,-121.027500,15.523,32.917,NaN,NaN
20040108,003111,192493,31.109667,-121.029167,15.527,32.918,NaN,NaN
20040108,003141,192523,31.108833,-121.030667,15.520,32.918,NaN,NaN
20040108,003211,192553,31.108167,-121.032167,15.510,32.919,NaN,NaN
20040108,003241,192583,31.107333,-121.033667,15.503,32.915,NaN,NaN
20040108,003311,192613,31.106500,-121.035167,15.540,32.914,NaN,NaN
20040108,003341,192643,31.105667,-121.036667,15.578,32.913,NaN,NaN
20040108,003411,192673,31.105000,-121.038333,15.600,32.918,NaN,NaN
20040108,003441,192703,31.104167,-121.039833,15.590,32.921,NaN,NaN
20040108,003511,192733,31.103333,-121.041333,15.579,32.922,NaN,NaN
20040108,003541,192763,31.102500,-121.043000,15.571,32.923,NaN,NaN
20040108,003611,192793,31.101833,-121.044500,15.570,32.922,NaN,NaN
20040108,003641,192823,31.101000,-121.046000,15.545,32.926,NaN,NaN
20040108,003711,192853,31.100333,-121.047667,15.536,32.922,NaN,NaN
20040108,003741,192883,31.099500,-121.049167,15.548,32.922,NaN,NaN
20040108,003811,192913,31.098833,-121.050833,15.556,32.922,NaN,NaN
20040108,003841,192943,31.098000,-121.052333,15.571,32.922,NaN,NaN
20040108,003911,192973,31.097333,-121.054000,15.593,32.922,NaN,NaN
20040108,003941,193003,31.096667,-121.055500,15.607,32.923,NaN,NaN
20040108,004011,193033,31.095833,-121.057000,15.606,32.924,NaN,NaN
20040108,004041,193063,31.095167,-121.058667,15.598,32.926,NaN,NaN
20040108,004111,193093,31.094333,-121.060167,15.597,32.924,NaN,NaN
20040108,004141,193123,31.093667,-121.061833,15.610,32.923,NaN,NaN
20040108,004211,193153,31.093000,-121.063333,15.624,32.924,NaN,NaN
20040108,004241,193183,31.092167,-121.065000,15.626,32.926,NaN,NaN
20040108,004311,193213,31.091500,-121.066500,15.636,32.925,NaN,NaN
20040108,004341,193243,31.090833,-121.068000,15.648,32.926,NaN,NaN
20040108,004411,193273,31.090167,-121.069667,15.656,32.928,NaN,NaN
20040108,004441,193303,31.089333,-121.071333,15.660,32.928,NaN,NaN
20040108,004511,193333,31.088667,-121.072833,15.664,32.929,NaN,NaN
20040108,004541,193363,31.088000,-121.074333,15.662,32.930,NaN,NaN
20040108,004611,193393,31.087167,-121.076000,15.667,32.929,NaN,NaN
20040108,004641,193423,31.086500,-121.077500,15.680,32.930,NaN,NaN
20040108,004711,193453,31.085833,-121.079167,15.683,32.931,NaN,NaN
20040108,004741,193483,31.085167,-121.080667,15.683,32.932,NaN,NaN
20040108,004811,193513,31.084333,-121.082333,15.678,32.932,NaN,NaN
20040108,004841,193543,31.083667,-121.083833,15.679,32.931,NaN,NaN
20040108,004911,193573,31.083000,-121.085500,15.683,32.932,NaN,NaN
20040108,004941,193603,31.082333,-121.087000,15.690,32.930,NaN,NaN
20040108,005011,193633,31.081500,-121.088667,15.687,32.931,NaN,NaN
20040108,005041,193663,31.080833,-121.090167,15.675,32.930,NaN,NaN
20040108,005111,193693,31.080167,-121.091667,15.667,32.929,NaN,NaN
20040108,005141,193723,31.079500,-121.093333,15.662,32.928,NaN,NaN
20040108,005211,193753,31.078833,-121.094833,15.654,32.928,NaN,NaN
20040108,005241,193783,31.078000,-121.096500,15.644,32.927,NaN,NaN
20040108,005311,193813,31.077333,-121.098000,15.630,32.927,NaN,NaN
20040108,005341,193843,31.076667,-121.099667,15.598,32.929,NaN,NaN
20040108,005411,193873,31.076000,-121.101167,15.573,32.928,NaN,NaN
20040108,005441,193903,31.075333,-121.102667,15.559,32.926,NaN,NaN
20040108,005511,193933,31.074500,-121.104333,15.554,32.924,NaN,NaN
20040108,005541,193963,31.073833,-121.105833,15.549,32.923,NaN,NaN
20040108,005611,193993,31.073167,-121.107500,15.540,32.923,NaN,NaN
20040108,005641,194023,31.072500,-121.109000,15.511,32.926,NaN,NaN
20040108,005711,194053,31.071833,-121.110667,15.470,32.926,NaN,NaN
20040108,005741,194083,31.071167,-121.112167,15.437,32.922,NaN,NaN
20040108,005811,194113,31.070333,-121.113667,15.410,32.920,NaN,NaN
20040108,005841,194143,31.069667,-121.115333,15.373,32.923,NaN,NaN
20040108,005911,194173,31.069000,-121.117000,15.345,32.921,NaN,NaN
20040108,005941,194203,31.068333,-121.118500,15.316,32.925,NaN,NaN
20040108,010011,194233,31.067667,-121.120000,15.310,32.940,NaN,NaN
20040108,010041,194263,31.066833,-121.121667,15.312,32.958,NaN,NaN
20040108,010111,194293,31.066167,-121.123167,15.325,32.979,NaN,NaN
20040108,010141,194323,31.065500,-121.124667,15.348,33.016,NaN,NaN
20040108,010211,194353,31.064667,-121.126333,15.391,33.058,NaN,NaN
20040108,010241,194383,31.064000,-121.127833,15.425,33.087,NaN,NaN
20040108,010311,194413,31.063333,-121.129333,15.428,33.109,NaN,NaN
20040108,010341,194443,31.062667,-121.130833,15.436,33.122,NaN,NaN
20040108,010411,194473,31.061833,-121.132333,15.418,33.144,NaN,NaN
20040108,010441,194503,31.061167,-121.133833,15.409,33.151,NaN,NaN
20040108,010511,194533,31.060500,-121.135333,15.400,33.155,NaN,NaN
20040108,010541,194563,31.059833,-121.136833,15.393,33.157,NaN,NaN
20040108,010611,194593,31.059000,-121.138333,15.390,33.156,NaN,NaN
20040108,010641,194623,31.058333,-121.139833,15.389,33.157,NaN,NaN
20040108,010711,194653,31.057667,-121.141333,15.388,33.157,NaN,NaN
20040108,010741,194683,31.057000,-121.142833,15.387,33.157,NaN,NaN
20040108,010811,194713,31.056333,-121.144333,15.402,33.153,NaN,NaN
20040108,010841,194743,31.055500,-121.145833,15.449,33.155,NaN,NaN
20040108,010911,194773,31.054833,-121.147167,15.483,33.158,NaN,NaN
20040108,010941,194803,31.054167,-121.148667,15.484,33.164,NaN,NaN
20040108,011011,194833,31.053500,-121.150167,15.466,33.164,NaN,NaN
20040108,011041,194863,31.052667,-121.151667,15.455,33.162,NaN,NaN
20040108,011111,194893,31.052167,-121.153167,15.447,33.160,NaN,NaN
20040108,011141,194923,31.051333,-121.154667,15.458,33.156,NaN,NaN
20040108,011211,194953,31.050667,-121.156000,15.517,33.148,NaN,NaN
20040108,011241,194983,31.050000,-121.157500,15.548,33.150,NaN,NaN
20040108,011311,195013,31.049333,-121.159000,15.609,33.148,NaN,NaN
20040108,011341,195043,31.048500,-121.160500,15.628,33.153,NaN,NaN
20040108,011411,195073,31.047833,-121.161833,15.624,33.155,NaN,NaN
20040108,011441,195103,31.047167,-121.163333,15.600,33.157,NaN,NaN
20040108,011511,195133,31.046500,-121.164667,15.578,33.157,NaN,NaN
20040108,011541,195163,31.045833,-121.166167,15.566,33.154,NaN,NaN
20040108,011611,195193,31.045167,-121.167667,15.571,33.153,NaN,NaN
20040108,011641,195223,31.044500,-121.169167,15.550,33.155,NaN,NaN
20040108,011711,195253,31.043833,-121.170500,15.534,33.153,NaN,NaN
20040108,011741,195283,31.043167,-121.172000,15.543,33.151,NaN,NaN
20040108,011811,195313,31.042333,-121.173500,15.568,33.147,NaN,NaN
20040108,011841,195343,31.041667,-121.175000,15.565,33.151,NaN,NaN
20040108,011911,195373,31.041000,-121.176333,15.545,33.147,NaN,NaN
20040108,011941,195403,31.040333,-121.177833,15.576,33.138,NaN,NaN
20040108,012011,195433,31.039667,-121.179333,15.607,33.136,NaN,NaN
20040108,012041,195463,31.039000,-121.180833,15.638,33.136,NaN,NaN
20040108,012111,195493,31.038333,-121.182167,15.631,33.139,NaN,NaN
20040108,012141,195523,31.037667,-121.183667,15.625,33.140,NaN,NaN
20040108,012211,195553,31.037000,-121.185167,15.620,33.141,NaN,NaN
20040108,012241,195583,31.036333,-121.186667,15.621,33.140,NaN,NaN
20040108,012311,195613,31.035667,-121.188000,15.619,33.140,NaN,NaN
20040108,012341,195643,31.035000,-121.189500,15.610,33.139,NaN,NaN
20040108,012411,195673,31.034333,-121.191000,15.605,33.136,NaN,NaN
20040108,012441,195703,31.033667,-121.192500,15.614,33.135,NaN,NaN
20040108,012511,195733,31.033000,-121.194000,15.615,33.136,NaN,NaN
20040108,012541,195763,31.032333,-121.195333,15.609,33.136,NaN,NaN
20040108,012611,195793,31.031667,-121.196833,15.603,33.136,NaN,NaN
20040108,012641,195823,31.031000,-121.198333,15.592,33.134,NaN,NaN
20040108,012711,195853,31.030333,-121.199833,15.593,33.135,NaN,NaN
20040108,012741,195883,31.029667,-121.201333,15.592,33.135,NaN,NaN
20040108,012811,195913,31.029000,-121.202833,15.587,33.137,NaN,NaN
20040108,012841,195943,31.028333,-121.204167,15.584,33.136,NaN,NaN
20040108,012911,195973,31.027667,-121.205667,15.579,33.137,NaN,NaN
20040108,012941,196003,31.027000,-121.207167,15.577,33.137,NaN,NaN
20040108,013011,196033,31.026333,-121.208667,15.574,33.137,NaN,NaN
20040108,013041,196063,31.025667,-121.210167,15.565,33.138,NaN,NaN
20040108,013111,196093,31.025000,-121.211667,15.561,33.138,NaN,NaN
20040108,013141,196123,31.024333,-121.213167,15.555,33.138,NaN,NaN
20040108,013211,196153,31.023500,-121.214667,15.551,33.137,NaN,NaN
20040108,013241,196183,31.022833,-121.216167,15.539,33.138,NaN,NaN
20040108,013311,196213,31.022167,-121.217500,15.534,33.138,NaN,NaN
20040108,013341,196243,31.021500,-121.219000,15.530,33.137,NaN,NaN
20040108,013411,196273,31.020833,-121.220500,15.532,33.135,NaN,NaN
20040108,013441,196303,31.020167,-121.222000,15.533,33.136,NaN,NaN
20040108,013511,196333,31.019333,-121.223500,15.524,33.137,NaN,NaN
20040108,013541,196363,31.018667,-121.225000,15.508,33.137,NaN,NaN
20040108,013611,196393,31.018000,-121.226500,15.500,33.137,NaN,NaN
20040108,013641,196423,31.017333,-121.228000,15.484,33.136,NaN,NaN
20040108,013711,196453,31.016667,-121.229500,15.478,33.136,NaN,NaN
20040108,013741,196483,31.016000,-121.231000,15.479,33.134,NaN,NaN
20040108,013811,196513,31.015167,-121.232500,15.458,33.138,NaN,NaN
20040108,013841,196543,31.014500,-121.234000,15.457,33.134,NaN,NaN
20040108,013911,196573,31.013833,-121.235500,15.469,33.134,NaN,NaN
20040108,013941,196603,31.013167,-121.237000,15.468,33.135,NaN,NaN
20040108,014011,196633,31.012500,-121.238500,15.490,33.132,NaN,NaN
20040108,014041,196663,31.011667,-121.240000,15.526,33.132,NaN,NaN
20040108,014111,196693,31.011000,-121.241500,15.555,33.133,NaN,NaN
20040108,014141,196723,31.010333,-121.243000,15.576,33.136,NaN,NaN
20040108,014211,196753,31.009667,-121.244500,15.578,33.138,NaN,NaN
20040108,014241,196783,31.009000,-121.246000,15.576,33.138,NaN,NaN
20040108,014311,196813,31.008167,-121.247500,15.565,33.141,NaN,NaN
20040108,014341,196843,31.007500,-121.249000,15.543,33.141,NaN,NaN
20040108,014411,196873,31.006667,-121.250500,15.508,33.139,NaN,NaN
20040108,014441,196903,31.006000,-121.252000,15.460,33.145,NaN,NaN
20040108,014511,196933,31.005167,-121.253500,15.406,33.141,NaN,NaN
20040108,014541,196963,31.004500,-121.255000,15.404,33.135,NaN,NaN
20040108,014611,196993,31.003667,-121.256500,15.441,33.130,NaN,NaN
20040108,014641,197023,31.003000,-121.258000,15.486,33.129,NaN,NaN
20040108,014711,197053,31.002167,-121.259500,15.517,33.135,NaN,NaN
20040108,014741,197083,31.001333,-121.261000,15.522,33.136,NaN,NaN
20040108,014811,197113,31.000667,-121.262500,15.521,33.137,NaN,NaN
20040108,014841,197143,30.999833,-121.264000,15.516,33.138,NaN,NaN
20040108,014911,197173,30.999167,-121.265500,15.504,33.137,NaN,NaN
20040108,014941,197203,30.998333,-121.267000,15.497,33.136,NaN,NaN
20040108,015011,197233,30.997500,-121.268500,15.499,33.135,NaN,NaN
20040108,015041,197263,30.996833,-121.269833,15.498,33.135,NaN,NaN
20040108,015111,197293,30.996000,-121.271333,15.483,33.135,NaN,NaN
20040108,015141,197323,30.995333,-121.272833,15.481,33.133,NaN,NaN
20040108,015211,197353,30.994500,-121.274333,15.492,33.131,NaN,NaN
20040108,015241,197383,30.993833,-121.275833,15.503,33.130,NaN,NaN
20040108,015311,197413,30.993000,-121.277333,15.511,33.130,NaN,NaN
20040108,015341,197443,30.992333,-121.278667,15.512,33.130,NaN,NaN
20040108,015411,197473,30.991500,-121.280167,15.508,33.131,NaN,NaN
20040108,015441,197503,30.990833,-121.281667,15.513,33.129,NaN,NaN
20040108,015511,197533,30.990167,-121.283167,15.516,33.131,NaN,NaN
20040108,015541,197563,30.989333,-121.284667,15.516,33.131,NaN,NaN
20040108,015611,197593,30.988667,-121.286167,15.515,33.131,NaN,NaN
20040108,015641,197623,30.988000,-121.287667,15.518,33.131,NaN,NaN
20040108,015711,197653,30.987333,-121.289167,15.515,33.132,NaN,NaN
20040108,015741,197683,30.986667,-121.290667,15.512,33.133,NaN,NaN
20040108,015811,197713,30.986000,-121.292167,15.505,33.133,NaN,NaN
20040108,015841,197743,30.985333,-121.293667,15.505,33.132,NaN,NaN
20040108,015911,197773,30.984667,-121.295167,15.506,33.132,NaN,NaN
20040108,015941,197803,30.983833,-121.296667,15.500,33.133,NaN,NaN
20040108,020011,197833,30.983167,-121.298333,15.497,33.132,NaN,NaN
20040108,020041,197863,30.982500,-121.299833,15.498,33.132,NaN,NaN
20040108,020111,197893,30.981833,-121.301333,15.494,33.132,NaN,NaN
20040108,020141,197923,30.981167,-121.302833,15.496,33.131,NaN,NaN
20040108,020211,197953,30.980500,-121.304333,15.491,33.131,NaN,NaN
20040108,020241,197983,30.979833,-121.305833,15.486,33.130,NaN,NaN
20040108,020311,198013,30.979167,-121.307333,15.486,33.130,NaN,NaN
20040108,020341,198043,30.978500,-121.308833,15.490,33.130,NaN,NaN
20040108,020411,198073,30.977833,-121.310500,15.491,33.130,NaN,NaN
20040108,020441,198103,30.977167,-121.312000,15.493,33.130,NaN,NaN
20040108,020511,198133,30.976500,-121.313500,15.498,33.129,NaN,NaN
20040108,020541,198163,30.975833,-121.315000,15.499,33.130,NaN,NaN
20040108,020611,198193,30.975000,-121.316500,15.494,33.131,NaN,NaN
20040108,020641,198223,30.974333,-121.318167,15.494,33.131,NaN,NaN
20040108,020711,198253,30.973667,-121.319667,15.493,33.132,NaN,NaN
20040108,020741,198283,30.973000,-121.321167,15.494,33.132,NaN,NaN
20040108,020811,198313,30.972333,-121.322667,15.496,33.131,NaN,NaN
20040108,020841,198343,30.971667,-121.324333,15.503,33.131,NaN,NaN
20040108,020911,198373,30.971000,-121.325833,15.523,33.129,NaN,NaN
20040108,020941,198403,30.970333,-121.327333,15.555,33.129,NaN,NaN
20040108,021011,198433,30.969667,-121.328833,15.573,33.130,NaN,NaN
20040108,021041,198463,30.969000,-121.330500,15.582,33.133,NaN,NaN
20040108,021111,198493,30.968167,-121.332000,15.559,33.135,NaN,NaN
20040108,021141,198523,30.967500,-121.333500,15.527,33.134,NaN,NaN
20040108,021211,198553,30.966833,-121.335000,15.491,33.132,NaN,NaN
20040108,021241,198583,30.966167,-121.336667,15.465,33.128,NaN,NaN
20040108,021311,198613,30.965500,-121.338167,15.449,33.123,NaN,NaN
20040108,021341,198643,30.964833,-121.339667,15.439,33.118,NaN,NaN
20040108,021411,198673,30.964167,-121.341167,15.432,33.113,NaN,NaN
20040108,021441,198703,30.963500,-121.342833,15.419,33.112,NaN,NaN
20040108,021511,198733,30.962667,-121.344333,15.411,33.107,NaN,NaN
20040108,021541,198763,30.962000,-121.345833,15.403,33.105,NaN,NaN
20040108,021611,198793,30.961333,-121.347333,15.393,33.104,NaN,NaN
20040108,021641,198823,30.960500,-121.348833,15.384,33.102,NaN,NaN
20040108,021711,198853,30.959833,-121.350333,15.375,33.101,NaN,NaN
20040108,021741,198883,30.959167,-121.351833,15.374,33.098,NaN,NaN
20040108,021811,198913,30.958333,-121.353333,15.374,33.092,NaN,NaN
20040108,021841,198943,30.957667,-121.354833,15.371,33.088,NaN,NaN
20040108,021911,198973,30.956833,-121.356500,15.369,33.081,NaN,NaN
20040108,021941,199003,30.956167,-121.358000,15.375,33.071,NaN,NaN
20040108,022011,199033,30.955333,-121.359500,15.376,33.061,NaN,NaN
20040108,022041,199063,30.954667,-121.361000,15.380,33.053,NaN,NaN
20040108,022111,199093,30.954000,-121.362500,15.386,33.044,NaN,NaN
20040108,022141,199123,30.953167,-121.364167,15.397,33.033,NaN,NaN
20040108,022211,199153,30.952500,-121.365667,15.404,33.026,NaN,NaN
20040108,022241,199183,30.951667,-121.367167,15.412,33.019,NaN,NaN
20040108,022311,199213,30.951000,-121.368667,15.416,33.012,NaN,NaN
20040108,022341,199243,30.950167,-121.370167,15.411,33.007,NaN,NaN
20040108,022411,199273,30.949500,-121.371833,15.423,32.998,NaN,NaN
20040108,022441,199303,30.948667,-121.373333,15.453,32.993,NaN,NaN
20040108,022511,199333,30.948000,-121.374833,15.469,32.989,NaN,NaN
20040108,022541,199363,30.947167,-121.376333,15.477,32.986,NaN,NaN
20040108,022611,199393,30.946500,-121.378000,15.477,32.985,NaN,NaN
20040108,022641,199423,30.945833,-121.379500,15.462,32.985,NaN,NaN
20040108,022711,199453,30.945000,-121.381000,15.439,32.984,NaN,NaN
20040108,022741,199483,30.944333,-121.382667,15.423,32.980,NaN,NaN
20040108,022811,199513,30.943500,-121.384167,15.415,32.977,NaN,NaN
20040108,022841,199543,30.942833,-121.385667,15.397,32.978,NaN,NaN
20040108,022911,199573,30.942167,-121.387333,15.388,32.972,NaN,NaN
20040108,022941,199603,30.941333,-121.388833,15.382,32.973,NaN,NaN
20040108,023011,199633,30.940667,-121.390333,15.368,32.969,NaN,NaN
20040108,023041,199663,30.939833,-121.391833,15.374,32.962,NaN,NaN
20040108,023111,199693,30.939167,-121.393500,15.420,32.955,NaN,NaN
20040108,023141,199723,30.938333,-121.395000,15.445,32.952,NaN,NaN
20040108,023211,199753,30.937667,-121.396500,15.423,32.954,NaN,NaN
20040108,023241,199783,30.936833,-121.398167,15.411,32.949,NaN,NaN
20040108,023311,199813,30.936167,-121.399667,15.418,32.942,NaN,NaN
20040108,023341,199843,30.935333,-121.401167,15.428,32.938,NaN,NaN
20040108,023411,199873,30.934667,-121.402667,15.439,32.934,NaN,NaN
20040108,023441,199903,30.933833,-121.404333,15.446,32.933,NaN,NaN
20040108,023511,199933,30.933167,-121.405833,15.445,32.934,NaN,NaN
20040108,023541,199963,30.932333,-121.407333,15.434,32.936,NaN,NaN
20040108,023611,199993,30.931667,-121.409000,15.424,32.936,NaN,NaN
20040108,023641,200023,30.930833,-121.410500,15.409,32.936,NaN,NaN
20040108,023711,200053,30.930167,-121.412000,15.399,32.936,NaN,NaN
20040108,023741,200083,30.929333,-121.413500,15.388,32.935,NaN,NaN
20040108,023811,200113,30.928667,-121.415167,15.377,32.937,NaN,NaN
20040108,023841,200143,30.927833,-121.416667,15.378,32.935,NaN,NaN
20040108,023911,200173,30.927167,-121.418167,15.373,32.935,NaN,NaN
20040108,023941,200203,30.926333,-121.419667,15.374,32.935,NaN,NaN
20040108,024011,200233,30.925667,-121.421167,15.377,32.934,NaN,NaN
20040108,024041,200263,30.924833,-121.422833,15.389,32.932,NaN,NaN
20040108,024111,200293,30.924167,-121.424333,15.410,32.930,NaN,NaN
20040108,024141,200323,30.923500,-121.425833,15.429,32.931,NaN,NaN
20040108,024211,200353,30.922667,-121.427333,15.430,32.935,NaN,NaN
20040108,024241,200383,30.921833,-121.428833,15.437,32.935,NaN,NaN
20040108,024311,200413,30.921167,-121.430500,15.459,32.935,NaN,NaN
20040108,024341,200443,30.920500,-121.432000,15.473,32.938,NaN,NaN
20040108,024411,200473,30.919667,-121.433500,15.491,32.941,NaN,NaN
20040108,024441,200503,30.919000,-121.435000,15.510,32.941,NaN,NaN
20040108,024511,200533,30.918167,-121.436500,15.533,32.945,NaN,NaN
20040108,024541,200563,30.917500,-121.438167,15.539,32.949,NaN,NaN
20040108,024611,200593,30.916833,-121.439667,15.547,32.953,NaN,NaN
20040108,024641,200623,30.916000,-121.441167,15.559,32.957,NaN,NaN
20040108,024711,200653,30.915333,-121.442667,15.572,32.963,NaN,NaN
20040108,024741,200683,30.914500,-121.444333,15.578,32.967,NaN,NaN
20040108,024811,200713,30.913833,-121.445833,15.591,32.968,NaN,NaN
20040108,024841,200743,30.913167,-121.447333,15.608,32.970,NaN,NaN
20040108,024911,200773,30.912333,-121.448833,15.653,32.972,NaN,NaN
20040108,024941,200803,30.911667,-121.450333,15.655,32.982,NaN,NaN
20040108,025011,200833,30.911000,-121.451833,15.615,32.986,NaN,NaN
20040108,025041,200863,30.910167,-121.453333,15.608,32.984,NaN,NaN
20040108,025111,200893,30.909500,-121.455000,15.558,32.981,NaN,NaN
20040108,025141,200923,30.908667,-121.456500,15.551,32.969,NaN,NaN
20040108,025211,200953,30.908000,-121.458000,15.578,32.963,NaN,NaN
20040108,025241,200983,30.907333,-121.459500,15.581,32.963,NaN,NaN
20040108,025311,201013,30.906500,-121.461000,15.562,32.962,NaN,NaN
20040108,025341,201043,30.905833,-121.462500,15.568,32.960,NaN,NaN
20040108,025411,201073,30.905167,-121.464000,15.600,32.963,NaN,NaN
20040108,025441,201103,30.904500,-121.465500,15.620,32.967,NaN,NaN
20040108,025511,201133,30.903833,-121.467000,15.624,32.967,NaN,NaN
20040108,025541,201163,30.903167,-121.468500,15.614,32.968,NaN,NaN